Location: Wanzleben
(52.0609°N, 11.4408°E)
Time: 07:13:40
(UTC+00:00)

CENTAUR R/B - Pass Details

Date: 18 September 2020
Orbit: 755 x 1433 km, 63.4° (Epoch: 02 October)

Event Time Altitude Azimuth Distance (km) Brightness Sun altitude
Rises 21:13:56 0° 313° (NW) 4,188 6.9 -31.4°
Reaches altitude 10° 21:17:01 10° 303° (WNW) 3,308 6.0 -31.6°
Maximum altitude 21:23:45 29° 247° (WSW) 2,288 4.4 -32.2°
Enters shadow 21:25:43 27° 225° (SW) 2,424 4.4 -32.3°
